Flag for U.S.A. Weather past 2 weeks in Baton Rouge, Louisiana, U.S.A.

Now
89 °F

Passing clouds.


Feels Like: 98 °F
Forecast: 76 / 91 °F
Wind: 7 mph from West

Location: Baton Rouge Metropolitan - Ryan Field

Current Time: Jul 3, 2015 at 1:08:22 PM

Latest Report: Jul 3, 2015 at 12:00 PM


Visibility: 10 mi

Pressure: 30.05 "Hg

Humidity: 61%

Dew point: 74 °F

Location of Baton RougeLocation

Historic Weather in Baton Rouge — Graph

°F

Baton Rouge temperature yesterday

Maximum temperature yesterday: 91 °F (at 4:53 PM)
Minimum temperature yesterday: 74 °F (at 1:53 AM)
Average temperature yesterday: 82 °F

Past Weeks' High & Low Weather Summary

 TemperatureHumidityPressure
High96 °F (Jun 23, 3:53 PM)100% (Jun 26, 5:53 AM)30.16 "Hg (Jun 26, 5:53 AM)
Low70 °F (Jun 29, 11:53 PM)49% (Jun 21, 4:53 PM)29.94 "Hg (Jun 27, 5:53 PM)
Average81 °F80%30.05 "Hg
* Reported Jun 18 12:53 PM — Jul 3 12:00 Noon, Baton Rouge, Weather by CustomWeather, © 2015

Note: Actual official high and low records may vary slightly from our data, if they occured in-between our weather recording intervals... More about our weather records

Advertising

Baton Rouge weather history for previous 24 hours

 ConditionsComfort  
Time TempWeatherWind HumidityBarometerVisibility
12:00 PM
Fri, Jul 3
89 °FPassing clouds.7 mph61%30.05 "Hg10 mi
10:53 AM88 °FScattered clouds.3 mph65%30.04 "Hg10 mi
9:53 AM86 °FScattered clouds.12 mph72%30.03 "Hg10 mi
8:53 AM85 °FScattered clouds.8 mph75%30.04 "Hg10 mi
7:53 AM83 °FSunny.6 mph77%30.03 "Hg10 mi
6:53 AM78 °FClear.No wind90%30.03 "Hg10 mi
5:53 AM76 °FPassing clouds.No wind94%30.03 "Hg10 mi
4:53 AM77 °FPassing clouds.No wind90%30.02 "Hg10 mi
3:53 AM78 °FPassing clouds.5 mph90%30.02 "Hg10 mi
2:53 AM79 °FClear.3 mph88%30.02 "Hg10 mi
1:53 AM79 °FClear.5 mph88%30.03 "Hg10 mi
12:53 AM80 °FPassing clouds.7 mph81%30.04 "Hg10 mi
11:53 PM
Thu, Jul 2
79 °FClear.6 mph84%30.03 "Hg10 mi
10:53 PM80 °FClear.5 mph81%30.02 "Hg10 mi
9:53 PM82 °FClear.10 mph74%30.01 "Hg10 mi
8:53 PM83 °FPassing clouds.7 mph72%30.00 "Hg10 mi
7:53 PM84 °FSunny.9 mph65%29.99 "Hg10 mi
6:53 PM87 °FSunny.8 mph59%30.00 "Hg10 mi
5:53 PM89 °FSunny.10 mph57%30.00 "Hg10 mi
4:53 PM91 °FPassing clouds.15 mph54%30.02 "Hg10 mi
3:53 PM89 °FPassing clouds.10 mph52%30.02 "Hg10 mi
2:53 PM90 °FPassing clouds.8 mph61%30.03 "Hg10 mi
1:53 PM90 °FPassing clouds.10 mph59%30.05 "Hg10 mi
Weather by CustomWeather, © 2015

See weather overviewHow to use our weather pages